Showing default

LES 5, 2866

Orbit data source: Space-Track

LES 5, 2866 is a payload satellite owned by SAMSO (US) in GEO that was launched on Sat, 01 Jul 1967 UTC via a TITAN IIIC launch vehicle from the Air Force Eastern Test Range (AFETR). Payload-class satellites include a variety of spacecraft equipped with specific instruments for various scientific and technological missions. These include communications satellites like Starlink; space stations such as the ISS; scientific satellites like the Hubble; Earth observation satellites from companies like Planet Labs, Umbra, and HawkEye 360; GPS; miniature CubeSats for education and research; and military/defense satellites.

Loading next visibility...
Identifier
2866, 1967-066E
Orbit
GEO
Country
Flag of USUS
Related business
Manufacturer
MIT-LL
Mission
Partially operational spacecraft
Bus & Motor
LES, Unknown motor
Mass
102 kg wet, 102 kg dry
Launch date (UTC)
1967-07-01 (58 years ago)
Launch vehicle
TITAN IIIC
Launch site
Air Force Eastern Test Range (AFETR)
Object type
Payload
Rocket body
Debris
Shape & HBR
Unknown
Radar Cross Section
Large (>1 m²)

Expand to show TLE details & history
Last TLE update: 15 hours ago

TLE from 15 hours ago
0 LES 5
1 02866U 67066E   25310.25797024 -.00000078  00000-0  00000-0 0  9990
2 02866   2.1087 103.8237 0055044 197.5577  55.8493  1.09425801128594
Epoch: 2025-11-06T06:11Z
TLE epoch observation values (Epoch: 2025-11-06T06:11:28.628Z)
Latitude
-2.00471°
Longitude
-140.87775°
Altitude
33,279.388 km
Speed
3.175 km/s
True Right ascension
23h 50m 50s
True Declination
-2° 00' 09"
Sunlit
Object was in daylight at epoch
Visualization orbit readout
Latitude
Unknown
Longitude
Unknown
Altitude
Unknown
Speed
Unknown
Apparent Right ascension
Unknown
Apparent Declination
Unknown
Sunlit
N/A
Visualization observer readout
Local Sidereal Time
16:58:52
Azimuth
Unknown
Elevation
Unknown
Doppler factor
Unknown
Orbital elements
Apogee altitude
33,621.095 km
Perigee altitude
33,183.162 km
Semi-major axis
39,780.266 km
Eccentricity
0.0055
Inclination
2.1087°
RAAN
103.8237°
Arg. of periapsis
197.5577°
True anomaly
56.37331°
Mean anomaly
55.8493°
Eccentric anomaly
56.1111°
Mean motion
0.27355 °/min
Orbital period
1,316.02 mins
BSTAR
0
Loading maneuver chart data...
Computing Atmospheric mass density...
Loading historical data...
Loading historical data...
Loading historical data...
Loading historical data...
Loading historical data...
Loading historical data...
Loading historical data...

Documentation

Showing up to 5 results
|